User: anonymous   Login
Location: Unspecified
(0.0000°N, 0.0000°E)
Time: 17:35:27
(UTC+02:00)
Language:

Cosmos 773 Rocket - Orbit

View from above orbital plane
View from above orbital plane
View from above satellite
View from above satellite

Ground track
Ground track

The orbit data is extracted from the following two-line orbital elements,

1 08344U 75094B   15152.77593406  .00000131  00000-0  50756-4 0  9991
2 08344 074.0587 060.8815 0021532 151.9351 208.2969 14.38963452 78329
Epoch (UTC): 01 June 2015 18:37:20
Eccentricity: 0.0021532
inclination: 74.0587°
perigee height: 746 km
apogee height: 777 km
right ascension of ascending node: 60.8815°
argument of perigee: 151.9351°
revolutions per day: 14.38963452
mean anomaly at epoch: 208.2969°
orbit number at epoch: 7832

The dashed part of the orbit path shows where the satellite is in the earth's shadow,  

DLR